Home   Weather   Lafayette   Past weeks

Flag for USA Past Weather in Lafayette, Indiana, USA — Yesterday and Last 2 Weeks

Now
38 °F

Clear.


Feels Like: 38 °F
Forecast: 38 / 72 °F
Wind: No wind

Location: Purdue University Airport

Current Time: Apr 24, 2017 at 7:41:10 am

Latest Report: Apr 24, 2017 at 6:54 am


Visibility: 10 mi

Pressure: 29.99 "Hg

Humidity: 93%

Dew Point: 36 °F

Location of LafayetteLocation

Past Weather in Lafayette — Graph

°F

Lafayette Temperature Yesterday

Maximum temperature yesterday: 68 °F (at 5:54 pm)
Minimum temperature yesterday: 38 °F (at 6:54 am)
Average temperature yesterday: 53 °F

High & Low Weather Summary for the Past Weeks

 TemperatureHumidityPressure
High80 °F (Apr 15, 2:54 pm)100% (Apr 12, 4:54 am)30.41 "Hg (Apr 12, 4:54 am)
Low36 °F (Apr 12, 5:54 am)28% (Apr 23, 5:54 pm)29.75 "Hg (Apr 9, 8:54 pm)
Average60 °F68%30.07 "Hg
* Reported Apr 9 5:54 am — Apr 24 5:54 am, Lafayette, Weather by CustomWeather, © 2017

Note: Actual official high and low records may vary slightly from our data, if they occured in-between our weather recording intervals... More about our weather records

Advertising

Lafayette Weather History for the Previous 24 Hours

Scroll right to see more
 ConditionsComfort  
Time TempWeatherWind HumidityBarometerVisibility
5:54 am
Mon, Apr 24
40 °FClear.No wind89%29.98 "Hg10 mi
4:54 am40 °FClear.No wind89%29.99 "Hg10 mi
3:54 am43 °FClear.No wind82%29.99 "Hg10 mi
2:54 am45 °FClear.No wind76%30.00 "Hg10 mi
1:54 am45 °FClear.3 mph80%30.01 "Hg10 mi
12:54 am50 °FClear.6 mph61%30.01 "Hg10 mi
11:54 pm
Sun, Apr 23
50 °FClear.3 mph68%30.01 "Hg10 mi
10:54 pm48 °FClear.5 mph74%30.02 "Hg10 mi
9:54 pm54 °FClear.6 mph55%30.02 "Hg10 mi
8:54 pm61 °FClear.5 mph35%30.01 "Hg10 mi
7:54 pm64 °FSunny.8 mph33%30.01 "Hg10 mi
6:54 pm67 °FSunny.9 mph31%30.01 "Hg10 mi
5:54 pm68 °FSunny.9 mph28%30.01 "Hg10 mi
4:54 pm67 °FSunny.13 mph30%30.03 "Hg10 mi
3:54 pm66 °FSunny.9 mph34%30.04 "Hg10 mi
2:54 pm65 °FSunny.12 mph33%30.05 "Hg10 mi
1:54 pm64 °FSunny.14 mph37%30.07 "Hg10 mi
12:54 pm60 °FSunny.9 mph44%30.09 "Hg10 mi
11:54 am58 °FSunny.13 mph43%30.10 "Hg10 mi
10:54 am56 °FSunny.12 mph49%30.11 "Hg10 mi
9:54 am51 °FSunny.7 mph56%30.12 "Hg10 mi
8:54 am47 °FSunny.9 mph64%30.14 "Hg10 mi
7:54 am41 °FSunny.6 mph76%30.13 "Hg10 mi
Weather by CustomWeather, © 2017

See weather overviewHow to use our weather pages